Overview Statistics Trail Chart Weather Telemetry Raw packets
 

This is the latest recevied weather packets stored in our database for station/object NW5W-12. If no packets are shown the sender has not sent any weather packets the latest 10 day(s).

<< 67 68 69 70 71 72 73 >>
Time Temp. Humidity Pressure Rain* Wind** Luminosity Snow
1788221340 13.33° C 91% 1022.6 hPa 1.02 mm - - -
1788221039 13.33° C 90% 1022.6 hPa 1.02 mm - - -
1788220740 13.33° C 89% 1022.6 hPa 1.02 mm - - -
1788220439 13.33° C 87% 1022.6 hPa 1.27 mm - - -
1788220140 13.33° C 86% 1022.6 hPa 1.02 mm - - -
1788219840 13.89° C 84% 1022.6 hPa 1.02 mm - - -
1788219539 13.89° C 80% 1022.5 hPa 1.02 mm - - -
1788219240 13.89° C 78% 1022.3 hPa 0.76 mm - - -
1788218940 13.89° C 78% 1022 hPa 0.76 mm - - -
1788218640 13.89° C 76% 1021.7 hPa 0.76 mm - - -
1788218340 13.89° C 75% 1021.5 hPa 0.76 mm - - -
1788218040 14.44° C 73% 1021 hPa 0.76 mm - - -
1788217739 15° C 73% 1020.9 hPa 1.02 mm - - -
1788217440 16.11° C 67% 1020.6 hPa 0.51 mm - - -
1788217140 19.44° C 58% 1020.1 hPa 0 mm - - -
1788216840 20.56° C 41% 1019.6 hPa 0 mm - - -
1788216540 20.56° C 40% 1019.5 hPa 0 mm - - -
1788216240 20.56° C 43% 1019.4 hPa 0 mm - - -
1788215940 20.56° C 43% 1019.2 hPa 0 mm - - -
1788215639 20.56° C 45% 1019.1 hPa 0 mm - - -
1788215339 21.11° C 46% 1019 hPa 0 mm - - -
1788215040 21.11° C 46% 1019 hPa 0 mm - - -
1788214740 21.67° C 47% 1019 hPa 0 mm - - -
1788214440 21.67° C 47% 1018.9 hPa 0 mm - - -
1788214159 21.67° C 48% 1018.9 hPa 0 mm - - -

* Rain since midnight (hover to see other rain measurements)
** Current wind speed in m/s (hover to see current wind gust speed)